Tracking 29042 objects as of 22-Jun-2024
HD Live streaming from Space Station
objects crossing your sky now

STARLINK-31810

Track STARLINK-31810 now!
10-day predictions
STARLINK-31810 is classified as:


NORAD ID: 59799
Int'l Code: 2024-093T
Perigee: 450.1 km
Apogee: 452.2 km
Inclination: 43.0 °
Period: 93.5 minutes
Semi major axis: 6822 km
RCS: Unknown
Launch date: May 18, 2024
Source: United States (US)
Launch site: AIR FORCE EASTERN TEST RANGE (AFETR)
Your satellite tracking list
Your tracking list is empty




NASA's NSSDC Master Catalog

Two Line Element Set (TLE):
1 59799U 24093T   24173.91667824 -.00073117  00000-0 -17590-2 0  9992
2 59799  42.9993 171.2612 0001595 265.8146 112.1707 15.40714476  6171
Source of the keplerian elements: AFSPC